[[{"header":{"parameterUnit":"m.s-1","parameterCategory":1,"la1":30.2991,"la2":30.254,"lo1":-89.0895,"lo2":-89.0444,"dy":0.0017,"dx":0.0017,"nx":28,"ny":28,"refTime":"2024-07-29T21:00:00:Z","depth":0,"parameterNumber":2,"parameterNumberName":"U-component_of_WINDS"},"data":[0,0,0,0,0,0,0,0,0,0,0,0,0,0,0,0,0,0,0,0,0,0,0,0,0,0,0,0,0,0,0,0,0,0,0,0,0,0,0,0,0,0,0,0,0,0,0,0,0,0,0,0,0,0,0,0,0,0,2.6976,2.6977,0,2.7075,2.7076,2.7077,2.7051,2.705,2.7048,2.7046,2.7155,2.7159,2.7164,0,0,0,0,0,0,0,0,0,0,0,0,0,2.6772,2.6776,2.6976,2.6977,2.6978,2.7075,2.7076,2.7077,2.7052,2.7049,2.7047,2.7045,2.7153,2.7159,2.7164,0,0,0,0,0,0,0,0,0,0,0,0,0,2.6865,2.6777,2.6975,2.6977,2.6978,2.7074,2.7076,2.7078,2.7052,2.7049,2.7046,2.7044,2.7151,2.7158,2.7165,2.7269,0,0,2.7187,2.719,0,0,0,0,0,0,0,0,2.6859,2.6872,2.6975,2.6977,2.6978,2.7048,2.7044,2.7142,2.7053,2.7024,2.7046,2.7042,2.7122,2.7131,2.7157,2.7274,2.7278,2.7187,2.7192,2.7195,2.7197,0,0,0,0,0,0,0,2.6853,2.6868,2.7015,2.6977,2.6979,2.6975,2.6985,2.7063,2.7089,2.7027,2.7025,2.7037,2.7122,2.715,2.7159,2.728,2.7187,2.7194,2.7198,2.7201,2.749,2.7493,0,0,0,0,0,0,2.6844,2.6863,2.7012,2.7018,2.691,2.6981,2.6992,2.7028,2.7088,2.7094,2.7039,2.7035,2.7139,2.7151,2.7163,2.7289,2.7195,2.7201,2.7206,2.7486,2.749,2.7494,0,0,0,0,0,0,2.684,2.6858,2.7008,2.694,2.6959,2.6988,2.7029,2.7032,2.7059,2.7097,2.7102,2.7062,2.7137,2.7153,2.7242,2.7293,2.7205,2.7211,2.7482,2.7487,2.7492,2.7543,0,0,0,0,0,0,2.6834,2.6857,2.6894,2.6941,2.6962,2.7084,2.7032,2.7036,2.7071,2.7067,2.712,2.7126,2.7136,2.7232,2.725,2.7301,2.7217,2.7478,2.7485,2.7491,2.7537,2.7549,2.7559,0,0,0,0,0,2.6827,2.6906,2.6896,2.6914,2.701,2.7087,2.7099,2.7107,2.7075,2.7115,2.7139,2.7124,2.7284,2.7241,2.7261,2.7315,2.7475,2.7483,2.749,2.7532,2.7547,2.7559,0,0,0,0,0,0,2.6866,2.6912,2.6902,2.6997,2.7038,2.7082,2.7132,2.7122,2.7175,2.7169,2.7178,2.7191,2.7283,2.7308,2.726,2.742,2.7375,2.7387,2.74,2.7415,2.7426,2.7419,2.7223,0,0,0,0,0,2.6885,2.6942,2.6979,2.706,2.7081,2.7103,2.7137,2.7139,2.7183,2.7201,2.7232,2.7277,2.7337,2.7377,2.7435,2.754,2.7553,2.7587,2.7598,2.7607,2.7618,2.7678,2.7695,2.7519,2.7519,2.7519,0,0,2.6927,2.6959,2.6994,2.7069,2.7101,2.7162,2.7118,2.7184,2.723,2.7212,2.7298,2.7322,2.7374,2.7472,2.7517,2.7496,2.7669,2.7617,2.7624,2.763,2.7688,2.7704,2.7719,2.7524,2.7523,2.7523,0,0,2.7033,2.7062,2.7133,2.7166,2.7214,2.7228,2.7246,2.7291,2.7306,2.7393,2.7381,2.7437,2.754,2.7578,2.7611,2.7732,2.7722,2.7751,2.7811,2.7869,2.7883,2.7895,2.7941,2.7957,2.7761,2.7762,2.7762,0,2.7079,2.7168,2.7172,2.7239,2.7273,2.7257,2.7331,2.7364,2.7429,2.7455,2.7429,2.7559,2.7593,2.7701,2.773,2.7757,2.7779,2.7746,2.788,2.7893,2.7904,2.7948,2.7965,2.7765,2.7765,2.7764,2.7764,0,2.7223,2.7285,2.7337,2.7399,2.744,2.751,2.7527,2.7567,2.7567,2.7584,2.7674,2.7713,2.7779,2.7805,2.7805,2.7914,2.79,2.7877,2.7833,2.7924,2.7966,2.7982,2.777,2.7769,2.7768,2.7767,0,0,2.7358,2.7421,2.744,2.7469,2.7521,2.7571,2.7641,2.7704,2.774,2.7786,2.7847,2.7935,2.7915,2.7952,2.7957,2.8008,2.8104,2.7979,2.7981,2.8003,2.8229,2.8247,2.8266,2.8097,2.81,2.8103,2.8225,0,2.7471,2.7592,2.7598,2.7711,2.7769,2.7756,2.7818,2.7858,2.7877,2.7932,2.7953,2.8016,2.7984,2.8006,2.8056,2.8082,2.815,2.8073,2.8157,2.816,2.8146,2.8287,2.8306,2.842,2.8241,2.8244,2.8246,0,2.7618,2.7667,2.7785,2.783,2.7855,2.791,2.7969,2.8021,2.8067,2.8078,2.8119,2.8117,2.8192,2.8144,2.8249,2.8197,2.8232,2.825,2.8255,2.8264,2.821,2.8303,2.8456,2.8474,2.8271,2.8269,2.8267,0,2.7707,2.7803,2.7886,2.7911,2.7965,2.8005,2.803,2.8073,2.8111,2.8163,2.8188,2.8249,2.8283,2.8331,2.8347,2.8309,2.8453,2.8405,2.8466,2.8466,2.8498,2.8496,2.8661,2.8517,2.8517,2.8517,2.8516,0,2.7834,2.7907,2.7927,2.7978,2.806,2.8067,2.815,2.8172,2.8211,2.8269,2.8261,2.8316,2.8331,2.839,2.8402,2.8489,2.8504,2.8517,2.852,2.8519,2.8517,2.8543,2.8536,2.8521,2.852,2.8519,2.8519,0,2.7948,2.7963,2.8053,2.8097,2.811,2.8169,2.8208,2.8259,2.8276,2.835,2.8367,2.8396,2.8464,2.8483,2.8566,2.8575,2.8677,2.8672,2.8661,2.8662,2.8722,2.8717,2.8911,2.8937,2.8774,2.8776,2.8777,0,2.8028,2.8084,2.8133,2.817,2.8197,2.8256,2.8294,2.8304,2.8345,2.8403,2.8447,2.8514,2.8568,2.8678,2.8708,2.8772,2.8769,2.8833,2.8779,2.8777,2.8773,2.877,2.8776,2.8844,2.8845,2.8847,2.8848,0,2.817,2.8175,2.8229,2.8287,2.8332,2.8378,2.8423,2.8454,2.8471,2.8517,2.8586,2.8628,2.8711,2.8779,2.8843,2.8872,2.8864,2.8864,2.8882,2.8882,2.8874,2.8881,2.8691,2.886,2.8859,2.8858,2.8857,2.8857,2.8271,2.8321,2.8363,2.8425,2.8459,2.8501,2.8551,2.8574,2.8631,2.8698,2.8701,2.8776,2.8824,2.8909,2.8941,2.9002,2.8983,2.9008,2.9015,2.9022,2.9028,2.8863,2.9013,2.9013,2.9013,2.9012,2.9012,0,2.8414,2.8441,2.8497,2.8559,2.8608,2.8593,2.8642,2.8684,2.875,2.8793,2.8846,2.8926,2.8992,2.9027,2.9092,2.9135,2.9133,2.9152,2.915,2.9157,2.9039,2.9018,2.9152,2.9152,2.9152,2.9152,2.9152,2.9152,2.8495,2.8578,2.8589,2.869,2.8717,2.8789,2.8818,2.8858,2.8893,2.8982,2.9035,2.9056,2.9097,2.9166,2.9226,2.9235,2.9261,2.9282,2.9289,2.9179,2.9165,2.9151,2.9132,2.9287,2.9287,2.9402,2.9403,2.9404]},{"header":{"parameterUnit":"m.s-1","parameterCategory":1,"la1":30.2991,"la2":30.254,"lo1":-89.0895,"lo2":-89.0444,"dy":0.0017,"dx":0.0017,"nx":28,"ny":28,"refTime":"2024-07-29T21:00:00:Z","depth":0,"parameterNumber":3,"parameterNumberName":"V-component_of_WINDS"},"data":[0,0,0,0,0,0,0,0,0,0,0,0,0,0,0,0,0,0,0,0,0,0,0,0,0,0,0,0,0,0,0,0,0,0,0,0,0,0,0,0,0,0,0,0,0,0,0,0,0,0,0,0,0,0,0,0,0,0,3.0469,3.047,0,3.062,3.0622,3.0623,3.0647,3.0646,3.0645,3.0643,3.0794,3.0799,3.0804,0,0,0,0,0,0,0,0,0,0,0,0,0,3.0193,3.0198,3.0469,3.047,3.0472,3.062,3.0622,3.0624,3.0648,3.0646,3.0644,3.0643,3.0792,3.0799,3.0805,0,0,0,0,0,0,0,0,0,0,0,0,0,3.0325,3.0199,3.0468,3.0502,3.0507,3.0619,3.0622,3.0624,3.0648,3.0646,3.0644,3.0642,3.079,3.0798,3.0806,3.0894,0,0,3.083,3.0833,0,0,0,0,0,0,0,0,3.0317,3.0335,3.0495,3.05,3.0505,3.0613,3.058,3.0715,3.0648,3.0594,3.0643,3.0641,3.0735,3.0747,3.078,3.0901,3.0907,3.083,3.0835,3.0839,3.0841,0,0,0,0,0,0,0,3.0308,3.0329,3.0528,3.0497,3.0504,3.0507,3.0524,3.0605,3.0674,3.0599,3.0601,3.0619,3.0737,3.0772,3.0784,3.091,3.083,3.0837,3.0842,3.0845,3.1104,3.1107,0,0,0,0,0,0,3.0294,3.0321,3.0524,3.0533,3.0405,3.0514,3.0532,3.058,3.0673,3.0685,3.062,3.0619,3.076,3.0774,3.0789,3.0895,3.0839,3.0846,3.085,3.1102,3.1105,3.1107,0,0,0,0,0,0,3.0288,3.0312,3.0517,3.0428,3.0454,3.0521,3.0574,3.0584,3.0619,3.0689,3.0701,3.0644,3.0759,3.0778,3.0867,3.0901,3.0849,3.0857,3.11,3.1103,3.1106,3.1109,0,0,0,0,0,0,3.028,3.0309,3.0346,3.0428,3.0459,3.0595,3.0576,3.0589,3.0633,3.0633,3.0715,3.0726,3.0759,3.0855,3.0874,3.0911,3.0863,3.1097,3.1101,3.1105,3.1107,3.1112,3.1117,0,0,0,0,0,3.027,3.0341,3.0348,3.0372,3.0506,3.0597,3.0614,3.0652,3.0636,3.0671,3.0715,3.0723,3.0894,3.0864,3.0886,3.0925,3.1095,3.11,3.1105,3.1104,3.1111,3.1117,0,0,0,0,0,0,3.0261,3.0353,3.0361,3.0461,3.0521,3.0601,3.0647,3.0659,3.0724,3.0721,3.0763,3.0781,3.0867,3.0905,3.087,3.1012,3.0993,3.1002,3.0984,3.0992,3.0997,3.0986,3.0869,0,0,0,0,0,3.027,3.0338,3.0414,3.0495,3.0525,3.0581,3.0622,3.0645,3.0708,3.0734,3.0785,3.0844,3.091,3.0953,3.1019,3.1112,3.1127,3.1149,3.1154,3.1159,3.1166,3.1213,3.1223,3.1123,3.1123,3.1123,0,0,3.0291,3.0349,3.039,3.0495,3.0544,3.0611,3.0602,3.0674,3.0723,3.0744,3.0831,3.0869,3.0938,3.1028,3.107,3.1062,3.1197,3.1165,3.1168,3.1173,3.1219,3.1229,3.1237,3.1127,3.1126,3.1126,0,0,3.0362,3.0415,3.0486,3.0535,3.0609,3.0645,3.0662,3.0739,3.0766,3.0853,3.0869,3.0926,3.1041,3.1088,3.1127,3.1211,3.1219,3.1231,3.1259,3.1304,3.1312,3.1319,3.1345,3.1355,3.1238,3.1238,3.1238,0,3.0378,3.0482,3.0521,3.0592,3.0635,3.0657,3.0727,3.0772,3.0863,3.0892,3.0882,3.1023,3.1071,3.117,3.119,3.1222,3.1239,3.1222,3.1308,3.1315,3.1323,3.1348,3.1358,3.1239,3.1239,3.1238,3.1238,0,3.0495,3.0566,3.0614,3.0702,3.0751,3.0821,3.0868,3.0912,3.093,3.0966,3.1051,3.1109,3.1185,3.121,3.1229,3.131,3.1303,3.13,3.1281,3.1332,3.1357,3.1367,3.124,3.1239,3.1239,3.1239,0,0,3.0567,3.0673,3.0689,3.0727,3.0809,3.0863,3.0932,3.1006,3.1042,3.1103,3.1159,3.1253,3.125,3.1294,3.1317,3.1357,3.1415,3.1349,3.1351,3.1357,3.1504,3.1504,3.1515,3.1421,3.1423,3.1425,3.1497,0,3.0646,3.0771,3.0806,3.0911,3.0975,3.0994,3.1053,3.1108,3.1142,3.1198,3.1235,3.13,3.1293,3.1318,3.1359,3.1399,3.1444,3.1395,3.147,3.1473,3.1451,3.1529,3.1531,3.1596,3.1507,3.1509,3.151,0,3.0755,3.0818,3.0929,3.0998,3.1026,3.1079,3.1147,3.1202,3.1262,3.1284,3.1331,3.135,3.1418,3.1395,3.1488,3.1453,3.1486,3.1509,3.1513,3.152,3.1494,3.1536,3.1619,3.1627,3.1526,3.1525,3.1524,0,3.0792,3.0904,3.0984,3.1016,3.11,3.1136,3.1172,3.1231,3.1271,3.133,3.1356,3.1422,3.1457,3.1506,3.154,3.1521,3.1629,3.161,3.1646,3.1644,3.1667,3.1665,3.1754,3.1691,3.1691,3.1691,3.169,0,3.0876,3.0942,3.1002,3.1051,3.1124,3.1162,3.1232,3.1269,3.132,3.1373,3.1394,3.1443,3.1487,3.1541,3.1568,3.1638,3.1654,3.1671,3.1677,3.1669,3.1666,3.169,3.1685,3.1693,3.1693,3.1692,3.1692,0,3.093,3.0973,3.1061,3.1132,3.1151,3.1201,3.1261,3.1307,3.134,3.1408,3.1426,3.1477,3.1542,3.1581,3.1663,3.168,3.1757,3.1762,3.1737,3.1739,3.1772,3.1767,3.1878,3.1893,3.1821,3.1822,3.1822,0,3.098,3.1031,3.1107,3.1145,3.1181,3.1242,3.1284,3.1321,3.1363,3.1433,3.1469,3.1535,3.159,3.1691,3.1734,3.1795,3.18,3.1835,3.181,3.1798,3.1798,3.1793,3.1797,3.1839,3.1839,3.184,3.184,0,3.1062,3.108,3.114,3.1206,3.1254,3.1308,3.1361,3.139,3.1436,3.148,3.1547,3.1589,3.1671,3.1734,3.1798,3.1832,3.1843,3.1848,3.1859,3.185,3.1832,3.1839,3.1746,3.1845,3.1844,3.1844,3.1844,3.1844,3.1114,3.1159,3.1218,3.1283,3.1326,3.1374,3.142,3.1458,3.1515,3.1585,3.1603,3.1672,3.1726,3.1813,3.1848,3.1899,3.1894,3.1911,3.1915,3.1918,3.1917,3.1824,3.1911,3.1911,3.1911,3.1911,3.1911,0,3.1195,3.1234,3.1293,3.1366,3.1415,3.1421,3.1479,3.1519,3.1579,3.163,3.1682,3.1756,3.1816,3.1863,3.1924,3.1956,3.1962,3.197,3.1968,3.1974,3.192,3.1903,3.1964,3.1964,3.1964,3.1964,3.1964,3.1964,3.1243,3.1318,3.1342,3.1437,3.1475,3.1543,3.1574,3.1617,3.1657,3.1739,3.1789,3.182,3.1867,3.1931,3.1985,3.1997,3.2017,3.2025,3.2037,3.1985,3.1979,3.1973,3.1958,3.2029,3.203,3.2087,3.2088,3.2088]}]]